EW9132 Weather Reports


time (UTC)temp
F
wind
direction
speed
knots
gust
knots
rain 1hr
in
rain 24hr
in
rain mn
in
humidity
%
barometer
mb
20260510064003 55 350 11.3 15.6 0.00 0.00 0.00 80 1015.9
20260510063503 55 350 12.2 17.4 0.00 0.00 0.00 80 1015.8
20260510063024 55 347 11.3 13.9 0.00 0.00 0.00 81 1015.8
20260510062503 54 349 11.3 13.9 0.00 0.00 0.00 82 1015.9
20260510062003 54 350 10.4 13.0 0.00 0.00 0.00 82 1015.9
20260510061503 54 348 12.2 17.4 0.00 0.00 0.00 83 1015.9
20260510061003 54 347 10.4 13.9 0.00 0.00 0.00 83 1015.8
20260510060503 54 348 9.6 12.2 0.00 0.00 0.00 83 1015.8
20260510060003 53 347 11.3 15.6 0.00 0.00 0.00 83 1015.9
20260510055503 53 347 10.4 13.9 0.00 0.00 0.00 83 1015.9
20260510055003 53 347 9.6 12.2 0.00 0.00 0.00 83 1015.9
20260510054503 53 349 10.4 13.9 0.00 0.00 0.00 83 1015.8
20260510054003 53 348 8.7 10.4 0.00 0.00 0.00 84 1015.9
20260510053524 52 348 9.6 10.4 0.00 0.00 0.00 84 1015.9
20260510053003 52 350 8.7 11.3 0.00 0.00 0.00 84 1016.0
20260510052503 52 349 9.6 11.3 0.00 0.00 0.00 85 1016.0
20260510052003 52 349 8.7 10.4 0.00 0.00 0.00 85 1015.9
20260510051503 52 349 9.6 11.3 0.00 0.00 0.00 85 1015.9
20260510051003 52 351 8.7 11.3 0.00 0.00 0.00 86 1015.8
20260510050503 52 351 8.7 12.2 0.00 0.00 0.00 86 1015.7
20260510050003 51 351 8.7 11.3 0.00 0.00 0.00 86 1015.7
20260510045524 51 351 8.7 12.2 0.00 0.00 0.00 86 1015.6
20260510045003 51 354 7.0 9.6 0.00 0.00 0.00 87 1015.8
20260510044503 51 358 7.0 9.6 0.00 0.00 0.00 87 1015.9
20260510044003 51 354 7.8 9.6 0.00 0.00 0.00 87 1015.8
20260510043503 51 350 8.7 8.7 0.00 0.00 0.00 87 1015.7
20260510043003 51 352 8.7 11.3 0.00 0.00 0.00 87 1015.8
20260510042503 51 349 8.7 10.4 0.00 0.00 0.00 87 1015.6
20260510042003 51 350 8.7 11.3 0.00 0.00 0.00 87 1015.7
20260510041503 52 348 8.7 11.3 0.00 0.00 0.00 87 1015.7
20260510041003 52 350 8.7 11.3 0.00 0.00 0.00 87 1015.8
20260510040503 52 350 7.8 11.3 0.00 0.00 0.00 87 1015.8
20260510040003 52 351 7.8 8.7 0.00 0.00 0.00 86 1015.8
20260510035503 52 349 7.8 9.6 0.00 0.00 0.00 86 1015.7
20260510035003 52 351 7.8 8.7 0.00 0.00 0.00 86 1015.7
20260510034503 52 350 7.8 8.7 0.00 0.00 0.00 85 1015.6
20260510034003 52 349 8.7 11.3 0.00 0.00 0.00 85 1015.7
20260510033503 52 349 8.7 11.3 0.00 0.00 0.00 85 1015.6
20260510033024 52 353 7.8 10.4 0.00 0.00 0.00 85 1015.5
20260510032503 52 353 7.8 9.6 0.00 0.00 0.00 85 1015.7
20260510032003 52 351 7.0 10.4 0.00 0.00 0.00 85 1015.6
20260510031503 52 352 7.8 8.7 0.00 0.00 0.00 85 1015.6
20260510031003 52 354 7.0 9.6 0.00 0.00 0.00 84 1015.7
20260510030503 52 351 7.8 9.6 0.00 0.00 0.00 84 1015.7
20260510030024 52 352 7.8 10.4 0.00 0.00 0.00 84 1015.7
20260510025503 52 350 8.7 12.2 0.00 0.00 0.00 84 1015.7
20260510025024 52 349 7.8 11.3 0.00 0.00 0.00 83 1015.7
20260510024524 52 349 7.8 8.7 0.00 0.00 0.00 83 1015.7
20260510024003 53 348 7.0 8.7 0.00 0.00 0.00 83 1015.8
20260510023503 52 349 7.0 10.4 0.00 0.00 0.00 83 1015.7
20260510023003 53 351 7.0 7.0 0.00 0.00 0.00 82 1015.9
20260510022503 53 350 7.0 7.8 0.00 0.00 0.00 82 1016.0
20260510022003 53 352 7.0 8.7 0.00 0.00 0.00 82 1015.9
20260510021503 53 349 7.0 8.7 0.00 0.00 0.00 82 1015.9
20260510021003 53 350 6.1 8.7 0.00 0.00 0.00 81 1016.0
20260510020503 53 351 7.0 8.7 0.00 0.00 0.00 81 1016.0
20260510020003 53 350 7.0 8.7 0.00 0.00 0.00 81 1015.9
20260510015503 53 348 7.0 8.7 0.00 0.00 0.00 81 1016.0
20260510015003 53 350 7.0 9.6 0.00 0.00 0.00 81 1016.0
20260510014503 53 351 7.0 9.6 0.00 0.00 0.00 81 1016.0
20260510014003 53 350 7.0 8.7 0.00 0.00 0.00 81 1016.0
20260510013503 53 352 7.0 7.8 0.00 0.00 0.00 81 1016.1
20260510013003 53 351 7.8 8.7 0.00 0.00 0.00 81 1016.1
20260510012503 53 351 7.0 8.7 0.00 0.00 0.00 81 1016.1
20260510012003 53 350 7.0 7.0 0.00 0.00 0.00 80 1016.2
20260510011503 53 347 7.0 8.7 0.00 0.00 0.00 80 1016.1
20260510011003 53 350 7.0 9.6 0.00 0.00 0.00 80 1016.2
20260510010503 53 353 6.1 8.7 0.00 0.00 0.00 80 1016.3
20260510010004 53 351 6.1 7.8 0.00 0.00 0.00 80 1016.4
20260510005503 53 357 5.2 7.8 0.00 0.00 0.00 79 1016.4
20260510005003 53 5 5.2 6.1 0.00 0.00 0.00 79 1016.5
20260510004503 53 352 6.1 7.8 0.00 0.00 0.00 79 1016.5
20260510004003 53 350 6.1 8.7 0.00 0.00 0.00 78 1016.5
20260510003503 53 352 6.1 7.8 0.00 0.00 0.00 77 1016.4
20260510003004 53 349 7.8 8.7 0.00 0.00 0.00 77 1016.5
20260510002503 53 350 7.0 8.7 0.00 0.00 0.00 76 1016.5
20260510002003 53 351 7.8 9.6 0.00 0.00 0.00 76 1016.6
20260510001503 53 353 7.0 8.7 0.00 0.00 0.00 75 1016.6
20260510001003 54 348 7.8 8.7 0.00 0.00 0.00 75 1016.7
20260510000503 54 350 7.8 9.6 0.00 0.00 0.00 74 1016.7
20260510000003 54 349 7.8 9.6 0.00 0.00 0.00 74 1016.7
20260509235503 54 348 7.8 8.7 0.00 0.00 0.00 73 1016.7
20260509235003 54 349 7.8 10.4 0.00 0.00 0.00 72 1016.8
20260509234503 54 351 6.1 8.7 0.00 0.00 0.00 72 1016.9
20260509234003 54 348 7.0 7.8 0.00 0.00 0.00 72 1017.0
20260509233503 54 346 7.0 8.7 0.00 0.00 0.00 72 1016.9
20260509233003 54 348 7.0 8.7 0.00 0.00 0.00 72 1016.9
20260509232503 54 349 7.0 7.8 0.00 0.00 0.00 71 1016.8
20260509232003 54 349 7.0 8.7 0.00 0.00 0.00 71 1016.9
20260509231503 54 349 7.0 8.7 0.00 0.00 0.00 70 1016.9
20260509231003 54 351 7.0 8.7 0.00 0.00 0.00 70 1016.9
20260509230503 54 353 7.0 7.8 0.00 0.00 0.00 69 1016.9
20260509230003 54 350 7.8 7.8 0.00 0.00 0.00 69 1016.9
20260509225503 55 350 7.8 8.7 0.00 0.00 0.00 69 1016.9
20260509225003 55 349 7.8 8.7 0.00 0.00 0.00 69 1016.9
20260509224503 55 351 7.0 9.6 0.00 0.00 0.00 68 1016.9
20260509224003 55 349 7.8 10.4 0.00 0.00 0.00 68 1017.1
20260509223503 55 350 7.0 7.8 0.00 0.00 0.00 69 1017.0
20260509223003 55 349 7.0 7.8 0.00 0.00 0.00 69 1017.0
20260509222503 55 346 7.8 8.7 0.00 0.00 0.00 69 1017.0
20260509222003 55 347 7.8 9.6 0.00 0.00 0.00 69 1017.0
20260509221503 56 349 7.8 8.7 0.00 0.00 0.00 69 1017.0
20260509221003 56 351 7.8 9.6 0.00 0.00 0.00 69 1017.0
20260509220503 56 350 7.8 8.7 0.00 0.00 0.00 69 1017.0
20260509220004 56 348 7.0 8.7 0.00 0.00 0.00 69 1016.9
20260509215503 56 348 7.0 8.7 0.00 0.00 0.00 69 1016.9
20260509215003 56 350 7.0 7.8 0.00 0.00 0.00 69 1017.0
20260509214503 56 349 7.0 8.7 0.00 0.00 0.00 69 1017.0
20260509214003 56 355 6.1 7.8 0.00 0.00 0.00 69 1017.0
20260509213503 56 350 7.0 7.8 0.00 0.00 0.00 69 1016.9
20260509213003 56 351 7.0 10.4 0.00 0.00 0.00 69 1016.9
20260509212503 56 350 7.0 10.4 0.00 0.00 0.00 69 1016.9
20260509212003 56 350 7.0 8.7 0.00 0.00 0.00 69 1017.0
20260509211503 56 350 7.0 7.8 0.00 0.00 0.00 69 1017.0
20260509211003 56 349 7.0 9.6 0.00 0.00 0.00 68 1017.0
20260509210503 57 348 7.0 8.7 0.00 0.00 0.00 68 1016.9
20260509210003 57 348 7.8 9.6 0.00 0.00 0.00 68 1017.0
20260509205503 57 348 7.8 9.6 0.00 0.00 0.00 68 1016.9
20260509205003 57 349 7.8 9.6 0.00 0.00 0.00 68 1016.8
20260509204503 57 351 7.8 9.6 0.00 0.00 0.00 67 1016.8
20260509204003 58 350 7.8 9.6 0.00 0.00 0.00 67 1016.7
20260509203524 58 349 7.8 9.6 0.00 0.00 0.00 67 1016.8
20260509203024 58 351 7.8 8.7 0.00 0.00 0.00 67 1016.7
20260509202503 58 351 7.8 8.7 0.00 0.00 0.00 67 1016.8
20260509202003 58 349 7.8 9.6 0.00 0.00 0.00 67 1016.8
20260509201524 58 347 7.0 8.7 0.00 0.00 0.00 66 1016.8
20260509201024 59 346 8.7 9.6 0.00 0.00 0.00 66 1016.7
20260509200503 59 352 8.7 11.3 0.00 0.00 0.00 66 1016.6
20260509200003 59 352 8.7 11.3 0.00 0.00 0.00 66 1016.7
20260509195524 59 347 9.6 12.2 0.00 0.00 0.00 65 1016.7
20260509195024 59 349 9.6 11.3 0.00 0.00 0.00 65 1016.6
20260509194525 60 350 9.6 11.3 0.00 0.00 0.00 66 1016.4
20260509194003 60 354 7.8 10.4 0.00 0.00 0.00 66 1016.3
20260509193524 60 350 9.6 10.4 0.00 0.00 0.00 65 1016.3
20260509193024 60 350 9.6 12.2 0.00 0.00 0.00 65 1016.1
20260509192503 60 350 9.6 13.0 0.00 0.00 0.00 65 1016.2
20260509192003 61 350 9.6 12.2 0.00 0.00 0.00 65 1016.1
20260509191524 61 348 7.8 12.2 0.00 0.00 0.00 65 1016.1
20260509191024 61 351 7.8 7.8 0.00 0.00 0.00 65 1016.1
20260509190524 62 349 9.6 11.3 0.00 0.00 0.00 64 1016.1
20260509190003 62 350 10.4 11.3 0.00 0.00 0.00 63 1016.1
20260509185524 62 349 10.4 11.3 0.00 0.00 0.00 63 1016.1
20260509185003 63 349 10.4 13.9 0.00 0.00 0.00 63 1016.1
20260509184503 63 349 10.4 15.6 0.00 0.00 0.00 62 1016.1
20260509184003 63 351 10.4 16.5 0.00 0.00 0.00 61 1016.0
20260509183503 64 349 10.4 13.0 0.00 0.00 0.00 61 1016.0
20260509183024 64 351 7.8 9.6 0.00 0.00 0.00 61 1016.1
20260509182503 65 348 10.4 12.2 0.00 0.00 0.00 60 1016.1
20260509182003 65 350 11.3 13.9 0.00 0.00 0.00 59 1016.0
20260509181503 66 348 10.4 12.2 0.00 0.00 0.00 59 1016.0
20260509181003 66 345 12.2 12.2 0.00 0.00 0.00 58 1016.0
20260509180503 66 349 11.3 13.9 0.00 0.00 0.00 58 1015.8
20260509180003 67 347 10.4 15.6 0.00 0.00 0.00 58 1015.8
20260509175524 67 343 12.2 15.6 0.00 0.00 0.00 57 1016.0
20260509175003 67 346 13.0 13.0 0.00 0.00 0.00 57 1016.0
20260509174524 67 345 12.2 20.0 0.00 0.00 0.00 57 1016.0
20260509174003 68 348 12.2 15.6 0.00 0.00 0.00 57 1015.9
20260509173503 68 345 12.2 17.4 0.00 0.00 0.00 56 1015.9
20260509173003 68 349 12.2 15.6 0.00 0.00 0.00 55 1015.8
20260509172503 68 346 12.2 12.2 0.00 0.00 0.00 56 1015.8
20260509172003 69 348 12.2 13.9 0.00 0.00 0.00 55 1015.8
20260509171503 69 339 12.2 17.4 0.00 0.00 0.00 55 1015.7
20260509171003 70 341 10.4 15.6 0.00 0.00 0.00 54 1015.7
20260509170504 70 351 7.0 7.8 0.00 0.00 0.00 50 1015.6
20260509170003 70 346 7.0 9.6 0.00 0.00 0.00 48 1015.6
20260509165503 70 23 4.3 7.8 0.00 0.00 0.00 50 1015.5
20260509165024 70 16 4.3 5.2 0.00 0.00 0.00 48 1015.6
20260509164503 70 33 2.6 5.2 0.00 0.00 0.00 49 1015.5
20260509164003 70 15 3.5 4.3 0.00 0.00 0.00 49 1015.5
20260509163503 71 358 6.1 7.8 0.00 0.00 0.00 47 1015.6
20260509163003 72 16 5.2 7.0 0.00 0.00 0.00 47 1015.6
20260509162503 72 34 3.5 5.2 0.00 0.00 0.00 48 1015.6
20260509162003 72 17 5.2 6.1 0.00 0.00 0.00 47 1015.6
20260509161503 72 42 3.5 5.2 0.00 0.00 0.00 49 1015.7
20260509161024 72 30 4.3 8.7 0.00 0.00 0.00 49 1015.7
20260509160503 71 30 3.5 4.3 0.00 0.00 0.00 50 1015.7
20260509160003 71 350 6.1 7.8 0.00 0.00 0.00 48 1015.8
20260509155504 72 12 5.2 7.0 0.00 0.00 0.00 47 1015.9
20260509155003 72 356 5.2 8.7 0.00 0.00 0.00 49 1015.8
20260509154503 72 358 6.1 7.0 0.00 0.00 0.00 46 1015.9
20260509154024 72 9 5.2 8.7 0.00 0.00 0.00 48 1016.0
20260509153503 73 13 5.2 8.7 0.00 0.00 0.00 49 1016.0
20260509153024 73 41 1.7 9.6 0.00 0.00 0.00 51 1016.1
20260509152503 73 12 3.5 13.9 0.00 0.00 0.00 50 1016.0
20260509152003 72 48 2.6 5.2 0.00 0.00 0.00 48 1016.0
20260509151503 71 34 3.5 5.2 0.00 0.00 0.00 48 1015.9
20260509151003 71 30 3.5 7.8 0.00 0.00 0.00 49 1016.0
20260509150503 72 25 5.2 6.1 0.00 0.00 0.00 48 1016.0
20260509150003 72 13 6.1 7.0 0.00 0.00 0.00 48 1016.0
20260509145503 72 348 7.8 9.6 0.00 0.00 0.00 47 1015.9
20260509145003 73 5 7.0 10.4 0.00 0.00 0.00 48 1016.0
20260509144503 73 11 6.1 10.4 0.00 0.00 0.00 48 1016.0
20260509144003 74 20 6.1 8.7 0.00 0.00 0.00 47 1016.0
20260509143503 74 65 1.7 7.0 0.00 0.00 0.00 48 1016.0
20260509143003 73 85 1.7 2.6 0.00 0.00 0.00 48 1016.1
20260509142503 73 49 1.7 4.3 0.00 0.00 0.00 50 1016.2
20260509142003 72 44 1.7 1.7 0.00 0.00 0.00 52 1016.2
20260509141503 72 28 4.3 7.0 0.00 0.00 0.00 47 1016.3
20260509141003 72 351 5.2 6.1 0.00 0.00 0.00 47 1016.3
20260509140503 72 8 5.2 5.2 0.00 0.00 0.00 46 1016.4
20260509140003 73 8 6.1 8.7 0.00 0.00 0.00 45 1016.4
20260509135503 74 25 3.5 6.1 0.00 0.00 0.00 45 1016.3
20260509135003 74 85 2.6 5.2 0.00 0.00 0.00 50 1016.3
20260509134503 74 49 2.6 3.5 0.00 0.00 0.00 50 1016.5
20260509134003 74 7 4.3 6.1 0.00 0.00 0.00 48 1016.5
20260509133503 74 45 2.6 7.0 0.00 0.00 0.00 50 1016.5
20260509133003 73 33 4.3 5.2 0.00 0.00 0.00 47 1016.6
20260509132503 73 38 4.3 9.6 0.00 0.00 0.00 49 1016.6
20260509132003 73 31 5.2 5.2 0.00 0.00 0.00 49 1016.6
20260509131503 73 38 4.3 6.1 0.00 0.00 0.00 51 1016.6
20260509131003 73 37 4.3 7.0 0.00 0.00 0.00 51 1016.7
20260509130503 72 17 2.6 7.8 0.00 0.00 0.00 52 1016.8
20260509130003 71 18 2.6 2.6 0.00 0.00 0.00 53 1016.8
20260509125503 71 19 6.1 7.8 0.00 0.00 0.00 52 1016.9
20260509125003 71 25 5.2 7.8 0.00 0.00 0.00 49 1016.8
20260509124503 71 2 5.2 5.2 0.00 0.00 0.00 51 1016.9
20260509124003 71 3 7.0 8.7 0.00 0.00 0.00 51 1017.1
20260509123503 71 7 6.1 9.6 0.00 0.00 0.00 51 1017.1
20260509123003 71 16 7.0 7.8 0.00 0.00 0.00 51 1017.1
20260509122503 72 7 5.2 7.8 0.00 0.00 0.00 52 1017.1
20260509122003 72 11 6.1 8.7 0.00 0.00 0.00 51 1017.3
20260509121503 72 356 3.5 8.7 0.00 0.00 0.00 52 1017.2
20260509121003 71 35 3.5 5.2 0.00 0.00 0.00 53 1017.3
20260509120503 71 27 6.1 8.7 0.00 0.00 0.00 53 1017.3
20260509120003 71 22 7.0 7.0 0.00 0.00 0.00 55 1017.4
20260509115503 71 11 6.1 10.4 0.00 0.00 0.00 54 1017.4
20260509115003 71 11 6.1 8.7 0.00 0.00 0.00 55 1017.5
20260509114503 71 14 5.2 9.6 0.00 0.00 0.00 52 1017.5
20260509114003 71 11 5.2 10.4 0.00 0.00 0.00 53 1017.6
20260509113503 71 44 3.5 6.1 0.00 0.00 0.00 58 1017.6
20260509113003 70 357 7.0 9.6 0.00 0.00 0.00 53 1017.7
20260509112503 70 10 6.1 10.4 0.00 0.00 0.00 53 1017.7
20260509112003 71 22 7.0 11.3 0.00 0.00 0.00 53 1017.7
20260509111503 70 20 5.2 11.3 0.00 0.00 0.00 56 1017.8
20260509111003 70 41 5.2 11.3 0.00 0.00 0.00 55 1017.9
20260509110503 70 33 5.2 7.8 0.00 0.00 0.00 56 1018.0
20260509110003 70 24 7.0 7.0 0.00 0.00 0.00 55 1017.9
20260509105503 70 9 6.1 8.7 0.00 0.00 0.00 56 1017.9
20260509105003 70 8 6.1 10.4 0.00 0.00 0.00 56 1018.0
20260509104503 70 24 6.1 7.8 0.00 0.00 0.00 54 1018.1
20260509104003 70 51 4.3 9.6 0.00 0.00 0.00 56 1018.1
20260509103503 70 45 4.3 7.0 0.00 0.00 0.00 53 1018.1
20260509103003 70 47 3.5 7.0 0.00 0.00 0.00 56 1018.1
20260509102503 70 53 3.5 5.2 0.00 0.00 0.00 57 1018.1
20260509102003 69 40 4.3 7.0 0.00 0.00 0.00 57 1018.1
20260509101503 69 29 5.2 6.1 0.00 0.00 0.00 58 1018.2
20260509101003 69 41 3.5 8.7 0.00 0.00 0.00 60 1018.3
20260509100503 68 39 4.3 6.1 0.00 0.00 0.00 58 1018.2
20260509100004 68 28 6.1 10.4 0.00 0.00 0.00 55 1018.2
20260509095503 68 22 7.0 10.4 0.00 0.00 0.00 56 1018.2
20260509095003 68 8 7.8 8.7 0.00 0.00 0.00 57 1018.2
20260509094503 68 13 6.1 10.4 0.00 0.00 0.00 57 1018.2
20260509094003 68 47 3.5 7.0 0.00 0.00 0.00 58 1018.2
20260509093503 68 29 4.3 7.0 0.00 0.00 0.00 59 1018.3
20260509093003 68 19 5.2 7.8 0.00 0.00 0.00 59 1018.4
20260509092503 67 15 6.1 8.7 0.00 0.00 0.00 59 1018.4
20260509092003 67 16 6.1 8.7 0.00 0.00 0.00 58 1018.4
20260509091503 67 12 6.1 7.8 0.00 0.00 0.00 59 1018.4
20260509091003 67 16 6.1 8.7 0.00 0.00 0.00 60 1018.4
20260509090503 67 45 2.6 5.2 0.00 0.00 0.00 62 1018.4
20260509090003 67 45 3.5 5.2 0.00 0.00 0.00 62 1018.4
20260509085503 67 26 4.3 4.3 0.00 0.00 0.00 61 1018.4
20260509085024 67 21 4.3 5.2 0.00 0.00 0.00 62 1018.3
20260509084503 66 26 3.5 7.0 0.00 0.00 0.00 63 1018.4
20260509084003 66 36 3.5 4.3 0.00 0.00 0.00 63 1018.4
20260509083503 66 40 2.6 4.3 0.00 0.00 0.00 64 1018.5
20260509083003 65 36 3.5 6.1 0.00 0.00 0.00 63 1018.5
20260509082524 65 44 2.6 6.1 0.00 0.00 0.00 66 1018.4
20260509082003 65 28 2.6 3.5 0.00 0.00 0.00 65 1018.4
20260509081524 64 40 1.7 4.3 0.00 0.00 0.00 66 1018.4
20260509081003 64 39 2.6 4.3 0.00 0.00 0.00 66 1018.5
20260509080503 63 35 3.5 6.1 0.00 0.00 0.00 67 1018.6
20260509080005 63 40 2.6 4.3 0.00 0.00 0.00 68 1018.6
20260509075503 62 69 1.7 3.5 0.00 0.00 0.00 72 1018.6
20260509075024 62 49 1.7 1.7 0.00 0.00 0.00 71 1018.6
20260509074503 61 33 3.5 4.3 0.00 0.00 0.00 70 1018.7
20260509074003 61 31 3.5 7.0 0.00 0.00 0.00 71 1018.7
20260509073503 60 47 2.6 4.3 0.00 0.00 0.00 72 1018.7
20260509073003 60 41 3.5 4.3 0.00 0.00 0.00 72 1018.7
20260509072503 59 60 2.6 4.3 0.00 0.00 0.00 73 1018.8
20260509072003 59 39 4.3 5.2 0.00 0.00 0.00 72 1018.8
20260509071524 59 30 4.3 6.1 0.00 0.00 0.00 73 1018.8
20260509071024 58 27 4.3 7.0 0.00 0.00 0.00 73 1018.8
20260509070524 58 31 3.5 5.2 0.00 0.00 0.00 75 1018.7
20260509070024 57 29 4.3 7.0 0.00 0.00 0.00 74 1018.7
20260509065524 57 30 4.3 5.2 0.00 0.00 0.00 75 1018.7
20260509065004 57 21 5.2 7.8 0.00 0.00 0.00 75 1018.7
20260509064503 56 20 5.2 7.0 0.00 0.00 0.00 76 1018.7